Change the Weather History Date:

Thursday, September 26, 2013

  Actual Average Record
Temperature  
Mean Temperature 74 °F -  
Max Temperature 80 °F 73 °F 89 °F (2004)
Min Temperature 68 °F 58 °F 59 °F (2002)
Cooling Degree Days 9    
Growing Degree Days 24 (Base 50)    
Moisture  
Dew Point 48 °F    
Average Humidity 40    
Maximum Humidity 60    
Minimum Humidity 31    
Precipitation  
Precipitation 0.00 in - - ()
Sea Level Pressure  
Sea Level Pressure 29.80 in    
Wind  
Wind Speed 15 mph ()    
Max Wind Speed 22 mph    
Max Gust Speed 32 mph    
Visibility 6.2 miles    
Events      
Averages and records for this station are not official NWS values.
T = Trace of Precipitation, MM = Missing Value Source: Averaged Metar Reports

Daily Weather History Graph

Daily Weather History Graph

Search for Another Location

Airport or City:

Trip Planner

Search our weather history database for the weather conditions in past years. The results will help you decide how hot, cold, wet, or windy it might be!

Date:

Astronomy

Sep. 26, 2013 Rise Set
Actual Time 5:48 AM JST 5:49 PM JST
Civil Twilight 5:23 AM JST 6:14 PM JST
Nautical Twilight 4:54 AM JST 6:44 PM JST
Astronomical Twilight 4:24 AM JST 7:13 PM JST
Moon 10:27 PM JST (9/26) 12:00 PM JST (9/26)
Length of Visible Light 12h 51m
Length of Day
12h 00m
Waning Gibbous, 60% of the Moon is Illuminated
Sep 26
Waning Gibbous
Sep 27
Last Quarter
Oct 5
New
Oct 12
First Quarter
Oct 19
Full

Hourly Weather History & Observations

Time (JST) Temp. Dew Point Humidity Pressure Visibility Wind Dir Wind Speed Gust Speed Precip Events Conditions
5:00 AM 71.6 °F 57.2 °F 60% 29.71 in 6.2 mi NNW 18.4 mph - N/A   Mostly Cloudy
6:00 AM 69.8 °F 55.4 °F 60% 29.74 in 6.2 mi NNW 16.1 mph 27.6 mph N/A   Mostly Cloudy
7:00 AM 69.8 °F 51.8 °F 53% 29.77 in 6.2 mi NNW 15.0 mph 28.8 mph N/A   Mostly Cloudy
8:00 AM 71.6 °F 50.0 °F 46% 29.77 in 6.2 mi NNW 17.3 mph 31.1 mph N/A   Scattered Clouds
9:00 AM 75.2 °F 50.0 °F 41% 29.77 in 6.2 mi NNW 18.4 mph 29.9 mph N/A   Partly Cloudy
10:00 AM 77.0 °F 51.8 °F 41% 29.77 in 6.2 mi NNW 20.7 mph - N/A   Partly Cloudy
11:00 AM 77.0 °F 50.0 °F 39% 29.77 in 6.2 mi North 18.4 mph - N/A   Scattered Clouds
12:00 PM 77.0 °F 48.2 °F 36% 29.77 in 6.2 mi North 18.4 mph - N/A   Scattered Clouds
12:14 PM 78.8 °F 48.2 °F 34% 29.77 in 6.2 mi North 18.4 mph 29.9 mph N/A   Scattered Clouds
1:00 PM 77.0 °F 48.2 °F 36% 29.77 in 6.2 mi NNW 18.4 mph 31.1 mph N/A   Scattered Clouds
2:00 PM 80.6 °F 48.2 °F 32% 29.80 in 6.2 mi NNW 21.9 mph - N/A   Scattered Clouds
2:06 PM 78.8 °F 46.4 °F 32% 29.80 in 6.2 mi NNW 20.7 mph 32.2 mph N/A   Scattered Clouds
3:00 PM 75.2 °F 44.6 °F 34% 29.80 in 6.2 mi NNW 20.7 mph 32.2 mph N/A   Scattered Clouds
4:00 PM 75.2 °F 44.6 °F 34% 29.83 in 6.2 mi North 16.1 mph - N/A   Scattered Clouds
4:05 PM 75.2 °F 44.6 °F 34% 29.83 in 6.2 mi North 17.3 mph 28.8 mph N/A   Scattered Clouds
5:00 PM 71.6 °F 41.0 °F 33% 29.83 in 6.2 mi North 18.4 mph - N/A   Partly Cloudy
5:15 PM 71.6 °F 39.2 °F 31% 29.86 in 6.2 mi North 17.3 mph 29.9 mph N/A   Partly Cloudy
6:00 PM 69.8 °F 42.8 °F 38% 29.86 in 6.2 mi North 12.7 mph - N/A   Partly Cloudy
7:00 PM 68.0 °F 46.4 °F 46% 29.89 in 6.2 mi North 8.1 mph - N/A   Partly Cloudy
8:00 PM 68.0 °F 44.6 °F 43% 29.92 in 6.2 mi North 10.4 mph - N/A   Partly Cloudy